Langdon, ND

1:25 PM CST on February 26, 2017 (GMT -0600)
Langdon

Weather History for KD55 - March, 2013

Change the Weather History Date:

Saturday, March 9, 2013

  Actual Average (KDVL) Record (KDVL)
Temperature  
Mean Temperature 20 °F -  
Max Temperature 24 °F 31 °F 60 °F (1977)
Min Temperature 14 °F 11 °F -20 °F (1951)
Degree Days  
Heating Degree Days 46    
Moisture  
Dew Point 18 °F    
Average Humidity 93    
Maximum Humidity 100    
Minimum Humidity 80    
Precipitation  
Precipitation 0.00 in - - ()
Sea Level Pressure  
Sea Level Pressure 29.92 in    
Wind  
Wind Speed 7 mph (NNW)    
Max Wind Speed 23 mph    
Max Gust Speed 31 mph    
Visibility 8 miles    
Events Rain , Snow    
Averages and records for this station are not official NWS values.
T = Trace of Precipitation, MM = Missing Value Source: NWS Daily Summary

Daily Weather History Graph

Daily Weather History Graph

Search for Another Location

Airport or City:

Trip Planner

Search our weather history database for the weather conditions in past years. The results will help you decide how hot, cold, wet, or windy it might be!

Date:

Astronomy

Mar. 09, 2013 Rise Set
Actual Time 6:58 AM CST 6:30 PM CST
Civil Twilight 6:27 AM CST 7:01 PM CST
Nautical Twilight 5:50 AM CST 7:38 PM CST
Astronomical Twilight 5:13 AM CST 8:15 PM CST
Moon 5:32 AM CST (3/9) 4:27 PM CST (3/9)
Length of Visible Light 12h 34m
Length of Day
11h 31m
Waning Crescent, 5% of the Moon is Illuminated
Mar 9
Waning Crescent
Mar 11
New
Mar 19
First Quarter
Mar 27
Full
Apr 2
Last Quarter

Hourly Weather History & Observations

Time (CST) Temp. Windchill Dew Point Humidity Pressure Visibility Wind Dir Wind Speed Gust Speed Precip Events Conditions
12:15 AM 17.6 °F 12.3 °F 15.8 °F 93% 30.04 in 10.0 mi SSW 3.5 mph - N/A Snow Light Snow
12:35 AM 17.6 °F - 15.8 °F 93% 30.02 in 5.0 mi Calm Calm - N/A Snow Light Snow
12:55 AM 17.6 °F 12.3 °F 17.6 °F 100% 30.01 in 7.0 mi South 3.5 mph - N/A Snow Light Snow
1:15 AM 17.6 °F - 15.8 °F 93% 30.00 in 8.0 mi Calm Calm - N/A Snow Light Snow
1:35 AM 17.6 °F - 15.8 °F 93% 29.99 in 10.0 mi Calm Calm - N/A   Overcast
1:55 AM 17.6 °F - 17.6 °F 100% 29.98 in 10.0 mi Calm Calm - N/A   Overcast
2:15 AM 17.6 °F 12.3 °F 15.8 °F 93% 29.97 in 10.0 mi NNE 3.5 mph - N/A   Overcast
2:35 AM 17.6 °F - 15.8 °F 93% 29.96 in 10.0 mi Calm Calm - N/A   Overcast
2:55 AM 17.6 °F - 15.8 °F 93% 29.95 in 10.0 mi Calm Calm - N/A   Overcast
3:15 AM 17.6 °F - 15.8 °F 93% 29.94 in 10.0 mi Calm Calm - N/A   Overcast
3:35 AM 17.6 °F 12.3 °F 17.6 °F 100% 29.94 in 10.0 mi North 3.5 mph - N/A   Overcast
3:55 AM 17.6 °F 12.3 °F 17.6 °F 100% 29.93 in 10.0 mi NNE 3.5 mph - N/A   Overcast
4:15 AM 17.6 °F 9.3 °F 17.6 °F 100% 29.92 in 10.0 mi NNE 5.8 mph - N/A   Overcast
4:35 AM 17.6 °F 9.3 °F 17.6 °F 100% 29.92 in 10.0 mi NNE 5.8 mph - N/A   Overcast
4:55 AM 17.6 °F 9.3 °F 17.6 °F 100% 29.92 in 10.0 mi NNE 5.8 mph - N/A   Overcast
5:15 AM 17.6 °F 9.3 °F 15.8 °F 93% 29.91 in 10.0 mi NE 5.8 mph - N/A   Overcast
5:35 AM 17.6 °F 10.7 °F 15.8 °F 93% 29.91 in 10.0 mi ENE 4.6 mph - N/A   Overcast
5:55 AM 17.6 °F 10.7 °F 15.8 °F 93% 29.92 in 10.0 mi ENE 4.6 mph - N/A   Overcast
6:15 AM 17.6 °F 12.3 °F 17.6 °F 100% 29.92 in 10.0 mi NE 3.5 mph - N/A   Overcast
6:35 AM 17.6 °F 12.3 °F 15.8 °F 93% 29.91 in 10.0 mi ENE 3.5 mph - N/A   Overcast
6:55 AM 17.6 °F 10.7 °F 17.6 °F 100% 29.90 in 8.0 mi ENE 4.6 mph - N/A Snow Light Snow
7:15 AM 17.6 °F 10.7 °F 15.8 °F 93% 29.90 in 9.0 mi ENE 4.6 mph - N/A   Overcast
7:35 AM 17.6 °F 10.7 °F 15.8 °F 93% 29.90 in 9.0 mi ENE 4.6 mph - N/A   Overcast
7:55 AM 17.6 °F 10.7 °F 15.8 °F 93% 29.89 in 10.0 mi ENE 4.6 mph - N/A   Overcast
8:15 AM 17.6 °F 9.3 °F 15.8 °F 93% 29.88 in 10.0 mi NE 5.8 mph - N/A   Overcast
8:35 AM 17.6 °F 12.3 °F 15.8 °F 93% 29.89 in 10.0 mi East 3.5 mph - N/A   Overcast
8:55 AM 17.6 °F 12.3 °F 15.8 °F 93% 29.89 in 10.0 mi East 3.5 mph - N/A   Overcast
9:15 AM 19.4 °F - 15.8 °F 86% 29.90 in 10.0 mi Calm Calm - N/A   Overcast
9:35 AM 19.4 °F 14.3 °F 15.8 °F 86% 29.91 in 10.0 mi South 3.5 mph - N/A   Overcast
9:55 AM 19.4 °F 12.8 °F 15.8 °F 86% 29.90 in 10.0 mi West 4.6 mph - N/A   Overcast
10:15 AM 19.4 °F 11.5 °F 15.8 °F 86% 29.89 in 5.0 mi WNW 5.8 mph - N/A   Overcast
10:35 AM 19.4 °F 11.5 °F 15.8 °F 86% 29.89 in 5.0 mi WNW 5.8 mph - N/A   Overcast
10:55 AM 19.4 °F 10.4 °F 17.6 °F 93% 29.89 in 5.0 mi WNW 6.9 mph - N/A Snow Light Snow
11:15 AM 21.2 °F 13.6 °F 17.6 °F 86% 29.87 in 5.0 mi WNW 5.8 mph - N/A Snow Light Snow
11:35 AM 21.2 °F 16.4 °F 17.6 °F 86% 29.86 in 7.0 mi NW 3.5 mph - N/A   Overcast
11:55 AM 21.2 °F 16.4 °F 17.6 °F 86% 29.85 in 9.0 mi NW 3.5 mph - N/A   Overcast
12:15 PM 23.0 °F 18.4 °F 17.6 °F 80% 29.85 in 9.0 mi WNW 3.5 mph - N/A   Overcast
12:35 PM 23.0 °F 13.9 °F 19.4 °F 86% 29.85 in 8.0 mi WNW 8.1 mph - N/A   Overcast
12:55 PM 23.0 °F 13.1 °F 21.2 °F 93% 29.85 in 7.0 mi WNW 9.2 mph - N/A   Overcast
1:15 PM 23.0 °F 13.1 °F 23.0 °F 100% 29.84 in 7.0 mi WNW 9.2 mph - N/A   Overcast
1:35 PM 24.8 °F 14.6 °F 23.0 °F 93% 29.84 in 7.0 mi WNW 10.4 mph - N/A   Overcast
1:55 PM 24.8 °F 13.4 °F 23.0 °F 93% 29.85 in 7.0 mi WNW 12.7 mph - N/A   Overcast
2:15 PM 24.8 °F 13.4 °F 23.0 °F 93% 29.84 in 7.0 mi NW 12.7 mph - N/A   Overcast
2:35 PM 24.8 °F 13.4 °F 23.0 °F 93% 29.84 in 8.0 mi WNW 12.7 mph - N/A   Overcast
2:55 PM 24.8 °F 12.4 °F 24.8 °F 100% 29.84 in 7.0 mi NW 15.0 mph - N/A   Overcast
3:15 PM 24.8 °F 11.9 °F 24.8 °F 100% 29.84 in 6.0 mi NW 16.1 mph - N/A   Overcast
3:35 PM 24.8 °F 13.4 °F 24.8 °F 100% 29.84 in 5.0 mi NW 12.7 mph - N/A Rain Light Freezing Rain
3:55 PM 24.8 °F 11.5 °F 24.8 °F 100% 29.84 in 7.0 mi NNW 17.3 mph - N/A Rain Light Freezing Rain
4:15 PM 24.8 °F 12.4 °F 24.8 °F 100% 29.85 in 6.0 mi NNW 15.0 mph - N/A   Overcast
4:35 PM 24.8 °F 10.3 °F 23.0 °F 93% 29.86 in 9.0 mi NW 20.7 mph 24.2 mph N/A   Overcast
4:55 PM 23.0 °F 7.6 °F 23.0 °F 100% 29.86 in 5.0 mi NNW 21.9 mph 28.8 mph N/A   Overcast
5:15 PM 23.0 °F 7.2 °F 21.2 °F 93% 29.87 in 3.0 mi NNW 23.0 mph 31.1 mph N/A   Overcast
5:35 PM 23.0 °F 8.0 °F 21.2 °F 93% 29.88 in 5.0 mi NNW 20.7 mph 26.5 mph N/A   Overcast
5:55 PM 23.0 °F 7.6 °F 19.4 °F 86% 29.88 in 5.0 mi NNW 21.9 mph 26.5 mph N/A   Overcast
6:15 PM 21.2 °F 6.4 °F 19.4 °F 93% 29.89 in 8.0 mi NNW 18.4 mph - N/A   Overcast
6:35 PM 21.2 °F 6.8 °F 19.4 °F 93% 29.91 in 9.0 mi NNW 17.3 mph - N/A   Overcast
6:55 PM 19.4 °F 2.8 °F 17.6 °F 93% 29.92 in 8.0 mi NNW 21.9 mph - N/A   Overcast
7:15 PM 19.4 °F 3.6 °F 17.6 °F 93% 29.93 in 10.0 mi NNW 19.6 mph - N/A   Overcast
7:35 PM 19.4 °F 3.6 °F 17.6 °F 93% 29.94 in 10.0 mi NNW 19.6 mph - N/A   Overcast
7:55 PM 19.4 °F 3.6 °F 17.6 °F 93% 29.95 in 9.0 mi NNW 19.6 mph 25.3 mph N/A   Overcast
8:15 PM 19.4 °F 3.6 °F 17.6 °F 93% 29.96 in 10.0 mi NNW 19.6 mph - N/A   Overcast
8:35 PM 19.4 °F 4.1 °F 17.6 °F 93% 29.97 in 10.0 mi NNW 18.4 mph - N/A   Overcast
8:55 PM 19.4 °F 4.1 °F 17.6 °F 93% 29.97 in 10.0 mi NNW 18.4 mph - N/A   Overcast
9:15 PM 19.4 °F 4.5 °F 17.6 °F 93% 29.98 in 10.0 mi NNW 17.3 mph - N/A   Overcast
9:35 PM 19.4 °F 3.6 °F 17.6 °F 93% 29.99 in 10.0 mi NNW 19.6 mph 26.5 mph N/A   Overcast
9:55 PM 17.6 °F 1.7 °F 15.8 °F 93% 30.01 in 10.0 mi NW 18.4 mph - N/A Snow Light Snow
10:15 PM 17.6 °F 2.2 °F 15.8 °F 93% 30.02 in 10.0 mi NNW 17.3 mph - N/A Snow Light Snow
10:35 PM 17.6 °F 2.7 °F 15.8 °F 93% 30.02 in 10.0 mi NNW 16.1 mph - N/A Snow Light Snow
10:55 PM 17.6 °F 2.2 °F 15.8 °F 93% 30.03 in 10.0 mi NNW 17.3 mph - N/A Snow Light Snow
11:15 PM 17.6 °F 1.3 °F 15.8 °F 93% 30.03 in 10.0 mi North 19.6 mph 26.5 mph N/A Snow Light Snow
11:35 PM 15.8 °F 1.4 °F 14.0 °F 93% 30.04 in 10.0 mi NW 13.8 mph - N/A Snow Light Snow
11:55 PM 14.0 °F -2.0 °F 12.2 °F 93% 30.05 in 10.0 mi NNW 16.1 mph - N/A   Overcast